TimeEDT,TemperatureF,Dew PointF,Humidity,Sea Level PressureIn,VisibilityMPH,Wind Direction,Wind SpeedMPH,Gust SpeedMPH,PrecipitationIn,Events,Conditions,WindDirDegrees,DateUTC
12:55 AM,59.0,55.0,87,29.62,10.0,SSE,4.6,-,0.00,,Mostly Cloudy,150,2013-06-02 04:55:00
1:47 AM,57.9,55.0,90,29.62,10.0,SSE,3.5,-,N/A,,Overcast,160,2013-06-02 05:47:00
1:55 AM,57.9,55.0,90,29.61,10.0,Calm,Calm,-,N/A,,Overcast,0,2013-06-02 05:55:00
2:46 AM,57.9,55.0,90,29.61,10.0,SW,4.6,-,0.00,Rain,Light Rain,220,2013-06-02 06:46:00
2:55 AM,57.9,55.0,90,29.60,10.0,WSW,5.8,-,0.00,Rain,Light Rain,240,2013-06-02 06:55:00
3:06 AM,57.0,55.0,93,29.60,10.0,West,8.1,-,0.00,,Overcast,270,2013-06-02 07:06:00
3:55 AM,50.0,46.9,89,29.60,7.0,WNW,9.2,-,0.00,Rain,Light Rain,300,2013-06-02 07:55:00
4:55 AM,46.0,44.1,93,29.61,10.0,NW,9.2,-,0.02,Rain,Light Rain,310,2013-06-02 08:55:00
5:55 AM,46.0,43.0,89,29.60,10.0,West,4.6,-,0.02,Rain,Light Rain,280,2013-06-02 09:55:00
6:55 AM,44.1,42.1,93,29.61,8.0,West,11.5,-,0.02,Rain,Light Rain,270,2013-06-02 10:55:00
7:55 AM,43.0,41.0,93,29.62,10.0,West,9.2,-,0.00,Rain,Light Rain,280,2013-06-02 11:55:00
8:34 AM,45.0,43.0,93,29.64,10.0,WNW,12.7,-,0.00,Rain,Light Rain,290,2013-06-02 12:34:00
8:55 AM,46.0,43.0,89,29.65,10.0,NW,11.5,18.4,0.00,Rain,Light Rain,310,2013-06-02 12:55:00
9:22 AM,46.9,44.1,90,29.65,10.0,NW,12.7,-,0.00,,Overcast,310,2013-06-02 13:22:00
9:34 AM,46.9,44.1,90,29.66,9.0,NW,12.7,-,0.00,Rain,Light Rain,310,2013-06-02 13:34:00
9:41 AM,48.0,44.1,86,29.66,9.0,NW,11.5,-,0.00,Rain,Light Rain,310,2013-06-02 13:41:00
9:55 AM,46.0,43.0,89,29.68,10.0,WNW,11.5,18.4,0.00,,Overcast,290,2013-06-02 13:55:00
10:25 AM,45.0,42.1,90,29.68,10.0,NW,12.7,23.0,N/A,,Overcast,310,2013-06-02 14:25:00
10:35 AM,45.0,41.0,86,29.69,10.0,WNW,13.8,24.2,N/A,,Overcast,300,2013-06-02 14:35:00
10:55 AM,45.0,39.9,82,29.71,10.0,NW,16.1,-,N/A,,Overcast,310,2013-06-02 14:55:00
11:13 AM,45.0,39.9,82,29.71,10.0,NW,16.1,23.0,N/A,,Overcast,310,2013-06-02 15:13:00
11:37 AM,45.0,39.9,82,29.73,10.0,NW,16.1,27.6,N/A,,Overcast,310,2013-06-02 15:37:00
11:55 AM,45.0,39.9,82,29.75,10.0,NW,16.1,24.2,N/A,,Overcast,310,2013-06-02 15:55:00
12:55 PM,46.9,39.0,74,29.78,10.0,WNW,21.9,31.1,N/A,,Overcast,300,2013-06-02 16:55:00
1:55 PM,46.0,37.0,71,29.81,10.0,NW,20.7,28.8,N/A,,Overcast,310,2013-06-02 17:55:00
2:06 PM,46.0,37.0,71,29.81,10.0,NW,20.7,35.7,N/A,,Overcast,320,2013-06-02 18:06:00
2:55 PM,46.0,36.0,68,29.83,10.0,NW,19.6,32.2,N/A,,Overcast,310,2013-06-02 18:55:00
3:55 PM,46.0,37.0,71,29.87,10.0,NW,20.7,31.1,N/A,,Overcast,310,2013-06-02 19:55:00
4:55 PM,44.1,35.1,71,29.90,10.0,NW,20.7,31.1,N/A,,Overcast,320,2013-06-02 20:55:00
5:55 PM,44.1,35.1,71,29.93,10.0,WNW,13.8,25.3,N/A,,Overcast,290,2013-06-02 21:55:00
6:55 PM,44.1,34.0,68,29.92,10.0,WNW,16.1,26.5,N/A,,Overcast,300,2013-06-02 22:55:00
7:55 PM,44.1,34.0,68,29.95,10.0,NW,15.0,-,N/A,,Overcast,310,2013-06-02 23:55:00
8:03 PM,43.0,34.0,71,29.94,10.0,WNW,12.7,20.7,N/A,,Overcast,300,2013-06-03 00:03:00
8:55 PM,43.0,34.0,71,29.96,10.0,NW,10.4,19.6,N/A,,Overcast,310,2013-06-03 00:55:00
9:55 PM,42.1,33.1,70,29.97,10.0,WNW,8.1,17.3,N/A,,Overcast,290,2013-06-03 01:55:00
10:55 PM,41.0,33.1,73,29.98,10.0,WNW,9.2,-,N/A,,Mostly Cloudy,300,2013-06-03 02:55:00
11:55 PM,39.9,33.1,77,29.97,10.0,WNW,8.1,-,N/A,,Clear,290,2013-06-03 03:55:00